[[{"header":{"parameterUnit":"m.s-1","parameterCategory":1,"la1":30.2991,"la2":30.254,"lo1":-89.0895,"lo2":-89.0444,"dy":0.0017,"dx":0.0017,"nx":28,"ny":28,"refTime":"2024-07-04T21:00:00:Z","depth":0,"parameterNumber":2,"parameterNumberName":"U-component_of_WINDS"},"data":[0,0,0,0,0,0,0,0,0,0,0,0,0,0,0,0,0,0,0,0,0,0,0,0,0,0,0,0,0,0,0,0,0,0,0,0,0,0,0,0,0,0,0,0,0,0,0,0,0,0,0,0,0,0,0,0,0,0,0.818,0.8181,0,0.8321,0.8323,0.8324,0.8365,0.8364,0.8363,0.8363,0.8509,0.8513,0.8518,0,0,0,0,0,0,0,0,0,0,0,0,0,0.7944,0.7948,0.818,0.8181,0.8183,0.8321,0.8323,0.8325,0.8365,0.8364,0.8363,0.8362,0.8507,0.8513,0.8518,0,0,0,0,0,0,0,0,0,0,0,0,0,0.8062,0.795,0.8179,0.822,0.8225,0.8321,0.8323,0.8325,0.8365,0.8364,0.8363,0.8362,0.8505,0.8512,0.8519,0.8585,0,0,0.854,0.8543,0,0,0,0,0,0,0,0,0.8055,0.8071,0.8212,0.8217,0.8223,0.8324,0.8293,0.8412,0.8365,0.8312,0.8363,0.8361,0.8448,0.846,0.8489,0.8592,0.8598,0.8541,0.8545,0.8548,0.855,0,0,0,0,0,0,0,0.8047,0.8065,0.8236,0.8214,0.8221,0.8231,0.8246,0.8316,0.8385,0.8317,0.832,0.8336,0.8451,0.8482,0.8493,0.86,0.854,0.8547,0.8551,0.8553,0.8763,0.8764,0,0,0,0,0,0,0.8032,0.8058,0.8231,0.824,0.8135,0.8236,0.8253,0.8293,0.8384,0.8397,0.8337,0.8337,0.8471,0.8485,0.8498,0.858,0.8548,0.8554,0.8558,0.8761,0.8763,0.8765,0,0,0,0,0,0,0.8027,0.8047,0.8225,0.815,0.8173,0.8241,0.8285,0.8296,0.8327,0.84,0.8412,0.8356,0.8471,0.8488,0.8563,0.8586,0.8557,0.8564,0.876,0.8762,0.8764,0.8746,0,0,0,0,0,0,0.802,0.8045,0.8071,0.815,0.8177,0.8288,0.8287,0.83,0.8339,0.8341,0.8421,0.8433,0.8471,0.8552,0.8569,0.8595,0.8569,0.8758,0.8761,0.8763,0.8745,0.8747,0.8749,0,0,0,0,0,0.8011,0.8061,0.8072,0.8093,0.8211,0.8289,0.8304,0.8347,0.8341,0.8367,0.8413,0.843,0.8581,0.8559,0.8579,0.8607,0.8757,0.876,0.8763,0.8744,0.8747,0.8749,0,0,0,0,0,0,0.7983,0.8072,0.8085,0.8162,0.8217,0.8296,0.833,0.8349,0.8408,0.8407,0.8458,0.8475,0.8546,0.8584,0.8559,0.8675,0.8669,0.8676,0.8648,0.8651,0.8653,0.8643,0.8575,0,0,0,0,0,0.7985,0.8041,0.8116,0.8176,0.8203,0.8262,0.8297,0.8325,0.8385,0.8409,0.8461,0.8518,0.8578,0.8617,0.8676,0.8751,0.8768,0.878,0.8782,0.8783,0.8789,0.883,0.8836,0.8775,0.8775,0.8775,0,0,0.7991,0.8047,0.8079,0.8172,0.8218,0.8275,0.8281,0.8341,0.8384,0.8418,0.8491,0.8531,0.8599,0.8673,0.8708,0.8707,0.881,0.8787,0.8788,0.8793,0.8834,0.884,0.8845,0.8777,0.8777,0.8776,0,0,0.8031,0.8079,0.8134,0.818,0.825,0.8288,0.8301,0.8377,0.8404,0.8478,0.8505,0.8556,0.8659,0.8705,0.8742,0.8798,0.8816,0.8816,0.8828,0.8868,0.8873,0.8877,0.8896,0.8903,0.8822,0.8822,0.8822,0,0.803,0.8116,0.816,0.8218,0.8258,0.8291,0.8346,0.8389,0.8475,0.8501,0.8499,0.8627,0.8676,0.8761,0.8774,0.8803,0.8819,0.8808,0.8868,0.8873,0.8878,0.8897,0.8904,0.8821,0.8821,0.8821,0.8821,0,0.811,0.817,0.8206,0.8287,0.8331,0.8387,0.844,0.8479,0.8502,0.8541,0.8615,0.8673,0.8745,0.8767,0.8791,0.8855,0.8852,0.8858,0.8853,0.8883,0.8901,0.8909,0.8821,0.8821,0.8821,0.8821,0,0,0.8137,0.8241,0.8253,0.829,0.8369,0.8416,0.8473,0.8543,0.8575,0.8633,0.8682,0.8767,0.8773,0.8815,0.8845,0.8879,0.8919,0.8881,0.8884,0.8886,0.8992,0.8987,0.8995,0.8931,0.8933,0.8934,0.8987,0,0.8186,0.829,0.8331,0.8416,0.8471,0.8503,0.8553,0.8607,0.8644,0.8696,0.8737,0.8797,0.88,0.8825,0.8861,0.8906,0.8941,0.8903,0.8977,0.8979,0.8959,0.9005,0.9,0.9047,0.8994,0.8995,0.8996,0,0.8257,0.8315,0.8405,0.8477,0.8501,0.8546,0.8612,0.8661,0.8723,0.8747,0.8793,0.8821,0.8882,0.8872,0.8958,0.8931,0.8964,0.899,0.8993,0.9001,0.8989,0.9014,0.9063,0.9069,0.9008,0.9007,0.9007,0,0.8266,0.8367,0.8434,0.8464,0.8549,0.858,0.8617,0.8677,0.8715,0.8773,0.8799,0.8863,0.8898,0.8947,0.8991,0.898,0.9071,0.9066,0.9093,0.9092,0.9111,0.9109,0.9165,0.9133,0.9132,0.9132,0.9132,0,0.8317,0.8371,0.8439,0.848,0.8541,0.8587,0.8646,0.8685,0.8738,0.8787,0.8818,0.8864,0.8918,0.8971,0.9005,0.907,0.9086,0.9107,0.9116,0.9104,0.9101,0.9126,0.9124,0.9134,0.9134,0.9133,0.9133,0,0.8337,0.8385,0.846,0.8534,0.8554,0.8595,0.8659,0.87,0.8738,0.8799,0.8817,0.8877,0.894,0.8988,0.907,0.9093,0.9161,0.9171,0.914,0.9145,0.9169,0.9166,0.9243,0.9255,0.9214,0.9215,0.9215,0,0.8366,0.8408,0.8487,0.8521,0.8558,0.8614,0.8653,0.87,0.8739,0.8812,0.8844,0.8909,0.8963,0.9062,0.9113,0.9176,0.9187,0.9209,0.9196,0.9183,0.9186,0.9183,0.9187,0.9211,0.9211,0.9211,0.9211,0,0.8412,0.8433,0.8489,0.8552,0.8598,0.8651,0.8703,0.873,0.8786,0.8829,0.8893,0.8936,0.9019,0.9083,0.915,0.9188,0.9209,0.9215,0.9225,0.9213,0.9194,0.9204,0.9144,0.9213,0.9213,0.9213,0.9213,0.9213,0.8437,0.8476,0.8537,0.8597,0.8642,0.869,0.8732,0.8775,0.883,0.8901,0.8925,0.8991,0.905,0.9143,0.9182,0.9234,0.9235,0.9249,0.9252,0.9255,0.9253,0.9185,0.9247,0.9247,0.9247,0.9247,0.9247,0,0.8484,0.8525,0.858,0.8653,0.87,0.8715,0.8774,0.8813,0.887,0.8924,0.8977,0.905,0.9112,0.9167,0.9232,0.9263,0.9274,0.9278,0.9276,0.9284,0.9249,0.9234,0.9268,0.9268,0.9268,0.9268,0.9268,0.9268,0.8514,0.858,0.8608,0.8696,0.8736,0.8801,0.8833,0.8878,0.8921,0.9001,0.9053,0.9088,0.9143,0.9211,0.9268,0.9283,0.9305,0.9307,0.9324,0.929,0.9287,0.9284,0.9271,0.9311,0.9311,0.9354,0.9355,0.9355]},{"header":{"parameterUnit":"m.s-1","parameterCategory":1,"la1":30.2991,"la2":30.254,"lo1":-89.0895,"lo2":-89.0444,"dy":0.0017,"dx":0.0017,"nx":28,"ny":28,"refTime":"2024-07-04T21:00:00:Z","depth":0,"parameterNumber":3,"parameterNumberName":"V-component_of_WINDS"},"data":[0,0,0,0,0,0,0,0,0,0,0,0,0,0,0,0,0,0,0,0,0,0,0,0,0,0,0,0,0,0,0,0,0,0,0,0,0,0,0,0,0,0,0,0,0,0,0,0,0,0,0,0,0,0,0,0,0,0,5.6093,5.6094,0,5.6116,5.6116,5.6116,5.6055,5.6053,5.6051,5.6049,5.6068,5.607,5.6072,0,0,0,0,0,0,0,0,0,0,0,0,0,5.5994,5.5996,5.6093,5.6094,5.6094,5.6116,5.6116,5.6116,5.6055,5.6053,5.605,5.6048,5.6067,5.607,5.6072,0,0,0,0,0,0,0,0,0,0,0,0,0,5.6029,5.5997,5.6093,5.6066,5.6064,5.6115,5.6116,5.6116,5.6055,5.6053,5.605,5.6047,5.6066,5.607,5.6073,5.6151,0,0,5.6083,5.6085,0,0,0,0,0,0,0,0,5.6027,5.6032,5.607,5.6068,5.6066,5.608,5.6088,5.6128,5.6056,5.6059,5.6049,5.6046,5.6074,5.6076,5.6087,5.6151,5.6152,5.6084,5.6086,5.6087,5.6088,0,0,0,0,0,0,0,5.6025,5.6031,5.6102,5.607,5.6068,5.6051,5.6053,5.6095,5.6082,5.6058,5.6054,5.6057,5.6072,5.6084,5.6087,5.6153,5.6083,5.6086,5.6089,5.609,5.6282,5.6285,0,0,0,0,0,0,5.6026,5.603,5.6101,5.6103,5.6039,5.6056,5.6058,5.6078,5.6081,5.6079,5.606,5.6054,5.6079,5.6083,5.6087,5.6178,5.6087,5.609,5.6092,5.6279,5.6283,5.6286,0,0,0,0,0,0,5.6024,5.6033,5.61,5.6065,5.6072,5.606,5.6084,5.608,5.6091,5.6082,5.6079,5.6074,5.6077,5.6082,5.6135,5.6178,5.6092,5.6095,5.6275,5.628,5.6284,5.6361,0,0,0,0,0,0,5.6022,5.6033,5.6063,5.6066,5.6074,5.615,5.6086,5.6082,5.6098,5.6091,5.6095,5.6093,5.6075,5.6131,5.6139,5.6181,5.6097,5.6271,5.6277,5.6283,5.6355,5.6368,5.6379,0,0,0,0,0,5.6018,5.6083,5.6065,5.6074,5.6112,5.6152,5.6157,5.6136,5.6101,5.6131,5.6125,5.6093,5.6172,5.6137,5.6145,5.6189,5.6269,5.6276,5.6282,5.6349,5.6365,5.6379,0,0,0,0,0,0,5.6084,5.6083,5.6063,5.6131,5.6142,5.6142,5.6179,5.6154,5.6174,5.6167,5.6139,5.6141,5.6199,5.6199,5.616,5.6264,5.6214,5.6223,5.6262,5.6277,5.6289,5.6287,5.61,0,0,0,0,0,5.6106,5.614,5.6137,5.6197,5.6204,5.6191,5.6207,5.6191,5.6201,5.6205,5.6203,5.6213,5.624,5.6259,5.6283,5.6355,5.6354,5.6389,5.6401,5.6411,5.6419,5.6456,5.6472,5.6309,5.6309,5.6308,0,0,5.6152,5.6156,5.6179,5.621,5.6217,5.6252,5.6195,5.6234,5.6259,5.621,5.6261,5.626,5.6269,5.6332,5.636,5.6334,5.6464,5.642,5.6428,5.643,5.6465,5.648,5.6494,5.6313,5.6312,5.6312,0,0,5.6255,5.6261,5.6312,5.6321,5.6333,5.6324,5.6336,5.634,5.6338,5.6388,5.6353,5.6381,5.6429,5.6437,5.6447,5.6554,5.6524,5.6562,5.6625,5.6662,5.6675,5.6686,5.6724,5.6738,5.657,5.657,5.6571,0,5.631,5.6362,5.6341,5.6383,5.6397,5.6357,5.6407,5.6416,5.6435,5.6445,5.6417,5.6476,5.6479,5.6543,5.6569,5.6579,5.6592,5.6561,5.6675,5.6686,5.6696,5.6732,5.6746,5.6575,5.6574,5.6574,5.6574,0,5.643,5.6467,5.6506,5.6527,5.6546,5.6592,5.6576,5.6598,5.658,5.6573,5.6625,5.6628,5.6652,5.6666,5.6648,5.6728,5.6712,5.668,5.6629,5.6717,5.675,5.6763,5.6581,5.658,5.6578,5.6577,0,0,5.6573,5.6582,5.6597,5.6606,5.6617,5.6644,5.6688,5.6713,5.6732,5.6746,5.6782,5.6824,5.6794,5.6806,5.6789,5.6821,5.6905,5.6785,5.6785,5.6807,5.6992,5.7016,5.7032,5.6886,5.6888,5.689,5.6992,0,5.6673,5.675,5.6733,5.6808,5.6841,5.6803,5.6841,5.6851,5.6847,5.6873,5.6867,5.6897,5.6856,5.6863,5.6894,5.6888,5.6942,5.6881,5.6918,5.6919,5.6916,5.705,5.7075,5.717,5.7004,5.7006,5.7008,0,5.68,5.6822,5.6901,5.6907,5.692,5.6955,5.6977,5.7003,5.7013,5.7007,5.7022,5.6998,5.704,5.699,5.7047,5.7006,5.702,5.702,5.7023,5.7025,5.6969,5.7055,5.72,5.7214,5.7028,5.7026,5.7025,0,5.6896,5.6945,5.6998,5.7007,5.7015,5.7041,5.7045,5.7053,5.7069,5.7088,5.7098,5.7121,5.7134,5.7151,5.7134,5.7099,5.7194,5.7142,5.719,5.719,5.7211,5.721,5.736,5.7221,5.7221,5.7221,5.722,0,5.701,5.706,5.7042,5.7075,5.7129,5.7108,5.7162,5.7161,5.7169,5.72,5.7168,5.7198,5.7174,5.7202,5.7188,5.7238,5.7244,5.7239,5.7235,5.7242,5.7243,5.725,5.7243,5.7224,5.7224,5.7223,5.7222,0,5.7126,5.7116,5.7172,5.7176,5.7178,5.7218,5.722,5.725,5.7243,5.7283,5.7292,5.7281,5.7312,5.7297,5.7328,5.7319,5.7383,5.737,5.738,5.7376,5.7425,5.742,5.7585,5.7605,5.7454,5.7455,5.7456,0,5.7199,5.7237,5.7245,5.7265,5.7272,5.7303,5.7321,5.7301,5.732,5.7335,5.7363,5.7392,5.7413,5.7464,5.7458,5.7482,5.7469,5.7525,5.7472,5.7478,5.7469,5.7467,5.7471,5.7535,5.7537,5.7539,5.754,0,5.733,5.7323,5.735,5.7375,5.7397,5.7416,5.7431,5.7449,5.743,5.7453,5.7485,5.7502,5.7535,5.7563,5.7584,5.7587,5.756,5.7557,5.7569,5.7576,5.758,5.7578,5.7408,5.7553,5.7551,5.755,5.755,5.7549,5.7426,5.7458,5.7469,5.75,5.751,5.7526,5.7554,5.7552,5.7579,5.7605,5.7592,5.7629,5.7638,5.7664,5.7671,5.7698,5.7676,5.7694,5.7698,5.7703,5.7709,5.7576,5.7702,5.7702,5.7701,5.7701,5.7701,0,5.7554,5.756,5.7589,5.7613,5.7637,5.7612,5.7628,5.7649,5.7683,5.7695,5.7717,5.7754,5.7781,5.7778,5.7803,5.7826,5.7815,5.7833,5.7831,5.7832,5.7728,5.7715,5.7842,5.7842,5.7842,5.7842,5.7842,5.7842,5.7624,5.7677,5.7672,5.7729,5.7734,5.7771,5.7783,5.7797,5.7806,5.7849,5.7872,5.7871,5.7876,5.7901,5.7925,5.7923,5.7934,5.7957,5.7951,5.7854,5.7839,5.7826,5.7814,5.796,5.796,5.8053,5.8054,5.8054]}]]